KC9DK Weather Reports


Display with metric or nautical units.
time (UTC)temp
F
wind
direction
speed
MPH
gust
MPH
rain 1hr
in
rain 24hr
in
rain mn
in
humidity
%
barometer
mb
20260504050410 59 201 2.0 2.0 0.00 0.00 0.00 54 1012.0
20260504045907 59 198 2.0 2.0 0.00 0.00 0.00 55 1012.1
20260504045402 59 246 1.0 2.0 0.00 0.00 0.00 55 1012.0
20260504044859 59 187 2.0 2.0 0.00 0.00 0.00 55 1012.2
20260504044356 59 182 0.0 0.0 0.00 0.00 0.00 56 1012.4
20260504043854 59 171 0.0 1.0 0.00 0.00 0.00 55 1012.4
20260504043350 59 189 0.0 1.0 0.00 0.00 0.00 55 1012.4
20260504042848 59 203 3.0 3.0 0.00 0.00 0.00 54 1012.4
20260504042344 59 284 2.0 2.0 0.00 0.00 0.00 54 1012.7
20260504041840 60 189 0.0 0.0 0.00 0.00 0.00 54 1012.6
20260504041337 60 164 0.0 0.0 0.00 0.00 0.00 53 1012.3
20260504040833 60 231 1.0 1.0 0.00 0.00 0.00 53 1012.5
20260504040331 60 134 1.0 1.0 0.00 0.00 0.00 54 1012.8
20260504035826 60 185 0.0 0.0 0.00 0.00 0.00 55 1012.8
20260504035324 59 194 2.0 3.0 0.00 0.00 0.00 53 1012.9
20260504034821 59 183 0.0 1.0 0.00 0.00 0.00 54 1012.7
20260504034319 59 187 1.0 2.0 0.00 0.00 0.00 56 1012.9
20260504033816 59 188 0.0 0.0 0.00 0.00 0.00 54 1012.7
20260504033314 59 124 1.0 2.0 0.00 0.00 0.00 54 1012.8
20260504032810 59 180 1.0 1.0 0.00 0.00 0.00 54 1012.9
20260504032307 59 186 0.0 1.0 0.00 0.00 0.00 55 1013.0
20260504031804 59 181 0.0 1.0 0.00 0.00 0.00 56 1013.0
20260504031301 59 153 0.0 0.0 0.00 0.00 0.00 54 1013.0
20260504030757 59 167 1.0 1.0 0.00 0.00 0.00 53 1013.3
20260504030254 59 154 1.0 1.0 0.00 0.00 0.00 53 1013.3
20260504025750 60 179 1.0 2.0 0.00 0.00 0.00 54 1013.3
20260504025248 60 149 1.0 1.0 0.00 0.00 0.00 53 1013.3
20260504024744 60 180 0.0 0.0 0.00 0.00 0.00 52 1013.5
20260504024241 60 165 1.0 2.0 0.00 0.00 0.00 52 1013.6
20260504023738 60 150 2.0 2.0 0.00 0.00 0.00 51 1013.5
20260504023234 60 177 0.0 0.0 0.00 0.00 0.00 51 1013.4
20260504022730 60 178 1.0 1.0 0.00 0.00 0.00 52 1013.5
20260504022226 60 170 0.0 1.0 0.00 0.00 0.00 52 1013.3
20260504021724 60 173 0.0 0.0 0.00 0.00 0.00 51 1013.7
20260504021221 60 148 2.0 3.0 0.00 0.00 0.00 51 1013.5
20260504020718 60 176 0.0 0.0 0.00 0.00 0.00 52 1013.6
20260504020214 60 172 2.0 2.0 0.00 0.00 0.00 51 1013.3
20260504015711 60 191 0.0 0.0 0.00 0.00 0.00 51 1013.5
20260504015207 60 180 0.0 1.0 0.00 0.00 0.00 51 1013.4
20260504014703 60 159 0.0 1.0 0.00 0.00 0.00 52 1013.3
20260504014200 60 172 0.0 1.0 0.00 0.00 0.00 52 1013.3
20260504013658 60 201 0.0 0.0 0.00 0.00 0.00 50 1013.3
20260504013154 60 166 0.0 0.0 0.00 0.00 0.00 52 1013.3
20260504012651 60 168 1.0 1.0 0.00 0.00 0.00 50 1013.4
20260504012149 60 179 0.0 0.0 0.00 0.00 0.00 50 1013.5
20260504011646 61 166 0.0 0.0 0.00 0.00 0.00 50 1013.5
20260504011142 61 175 0.0 0.0 0.00 0.00 0.00 48 1013.6
20260504010638 61 160 0.0 0.0 0.00 0.00 0.00 49 1013.5
20260504010134 61 176 0.0 0.0 0.00 0.00 0.00 47 1013.8
20260504005631 62 168 0.0 0.0 0.00 0.00 0.00 47 1013.5
20260504005128 62 184 0.0 0.0 0.00 0.00 0.00 46 1013.7
20260504004626 62 196 0.0 0.0 0.00 0.00 0.00 45 1013.7
20260504004123 63 207 0.0 1.0 0.00 0.00 0.00 46 1013.8
20260504003619 63 195 0.0 1.0 0.00 0.00 0.00 47 1013.5
20260504003116 63 199 0.0 0.0 0.00 0.00 0.00 45 1013.5
20260504002613 63 188 2.0 2.0 0.00 0.00 0.00 44 1013.6
20260504002111 64 195 1.0 1.0 0.00 0.00 0.00 43 1013.3
20260504001608 64 246 1.0 2.0 0.00 0.00 0.00 43 1013.4
20260504001104 64 237 1.0 2.0 0.00 0.00 0.00 42 1013.3
20260504000601 64 197 0.0 0.0 0.00 0.00 0.00 42 1013.1
20260504000059 65 243 5.0 7.0 0.00 0.00 0.00 41 1013.2
20260503235557 65 214 0.0 1.0 0.00 0.00 0.00 43 1012.8
20260503235053 65 242 2.0 3.0 0.00 0.00 0.00 41 1012.9
20260503234551 65 72 3.0 3.0 0.00 0.00 0.00 41 1012.8
20260503234049 65 176 2.0 2.0 0.00 0.00 0.00 40 1012.8
20260503233545 66 191 0.0 1.0 0.00 0.00 0.00 41 1013.1
20260503233041 66 205 1.0 1.0 0.00 0.00 0.00 40 1013.2
20260503232539 66 262 3.0 5.0 0.00 0.00 0.00 42 1013.3
20260503232036 66 178 1.0 2.0 0.00 0.00 0.00 43 1013.2
20260503231534 66 290 5.0 6.0 0.00 0.00 0.00 40 1013.1
20260503231030 66 253 3.0 3.0 0.00 0.00 0.00 41 1013.2
20260503230527 66 201 4.0 7.0 0.00 0.00 0.00 39 1013.3
20260503230024 66 213 1.0 2.0 0.00 0.00 0.00 41 1013.4
20260503225521 66 228 4.0 6.0 0.00 0.00 0.00 41 1013.4
20260503225016 66 252 5.0 8.0 0.00 0.00 0.00 40 1013.3
20260503224514 66 266 2.0 3.0 0.00 0.00 0.00 41 1013.4
20260503224012 66 191 1.0 1.0 0.00 0.00 0.00 41 1013.5
20260503223509 66 219 1.0 2.0 0.00 0.00 0.00 42 1013.6
20260503223005 66 168 2.0 2.0 0.00 0.00 0.00 40 1013.7
20260503222503 66 186 2.0 2.0 0.00 0.00 0.00 44 1013.9
20260503222001 66 311 3.0 5.0 0.00 0.00 0.00 40 1014.1
20260503221459 66 142 2.0 3.0 0.00 0.00 0.00 40 1014.1
20260503220956 66 283 2.0 2.0 0.00 0.00 0.00 40 1014.1
20260503220452 66 241 2.0 2.0 0.00 0.00 0.00 39 1014.3
20260503215949 66 197 1.0 1.0 0.00 0.00 0.00 41 1014.3
20260503215446 66 294 2.0 2.0 0.00 0.00 0.00 39 1014.3
20260503214943 66 216 1.0 1.0 0.00 0.00 0.00 42 1014.4
20260503214441 66 237 3.0 6.0 0.00 0.00 0.00 40 1014.3
20260503213938 66 258 1.0 1.0 0.00 0.00 0.00 42 1014.4
20260503213437 66 169 3.0 5.0 0.00 0.00 0.00 40 1014.7
20260503212932 66 17 5.0 7.0 0.00 0.00 0.00 41 1014.8
20260503212430 66 194 2.0 3.0 0.00 0.00 0.00 44 1015.1
20260503211927 66 142 1.0 2.0 0.00 0.00 0.00 41 1014.9
20260503211424 66 180 2.0 2.0 0.00 0.00 0.00 41 1015.2
20260503210919 66 254 5.0 7.0 0.00 0.00 0.00 41 1015.3
20260503210416 66 222 3.0 3.0 0.00 0.00 0.00 42 1015.0
20260503205911 66 240 3.0 5.0 0.00 0.00 0.00 43 1015.1
20260503205409 66 250 3.0 6.0 0.00 0.00 0.00 42 1015.6
20260503204904 66 287 3.0 3.0 0.00 0.00 0.00 42 1015.6
20260503204402 66 154 2.0 3.0 0.00 0.00 0.00 45 1015.8
20260503203859 65 233 2.0 2.0 0.00 0.00 0.00 43 1015.6
20260503203356 66 244 3.0 5.0 0.00 0.00 0.00 42 1016.0
20260503202853 66 265 3.0 3.0 0.00 0.00 0.00 40 1016.0
20260503202351 66 218 1.0 1.0 0.00 0.00 0.00 44 1016.2
20260503201849 67 154 7.0 10.0 0.00 0.00 0.00 40 1016.5
20260503201346 67 254 1.0 1.0 0.00 0.00 0.00 43 1016.5
20260503200844 68 299 1.0 3.0 0.00 0.00 0.00 41 1016.5
20260503200339 68 175 3.0 5.0 0.00 0.00 0.00 39 1017.1
20260503195837 67 265 2.0 2.0 0.00 0.00 0.00 42 1016.9
20260503195333 68 273 2.0 3.0 0.00 0.00 0.00 39 1017.1
20260503194830 68 184 1.0 1.0 0.00 0.00 0.00 41 1017.0
20260503194326 68 328 6.0 7.0 0.00 0.00 0.00 38 1017.5
20260503193823 68 232 4.0 5.0 0.00 0.00 0.00 39 1017.4
20260503193319 67 240 2.0 3.0 0.00 0.00 0.00 39 1017.4
20260503192815 67 298 1.0 2.0 0.00 0.00 0.00 40 1017.4
20260503192310 68 254 3.0 3.0 0.00 0.00 0.00 39 1017.4
20260503191806 67 296 3.0 5.0 0.00 0.00 0.00 41 1017.9
20260503191303 68 213 4.0 8.0 0.00 0.00 0.00 36 1017.6
20260503190800 68 263 5.0 6.0 0.00 0.00 0.00 37 1017.9
20260503190257 68 197 1.0 1.0 0.00 0.00 0.00 40 1017.9
20260503185755 67 276 2.0 3.0 0.00 0.00 0.00 40 1018.1
20260503185250 69 289 5.0 7.0 0.00 0.00 0.00 37 1018.3
20260503184750 69 228 1.0 2.0 0.00 0.00 0.00 44 1018.1
20260503184247 68 186 0.0 0.0 0.00 0.00 0.00 42 1018.4
20260503183743 66 210 1.0 2.0 0.00 0.00 0.00 53 1018.6
20260503183240 67 284 4.0 6.0 0.00 0.00 0.00 38 1018.7
20260503182738 67 200 2.0 3.0 0.00 0.00 0.00 40 1019.0
20260503182237 67 190 1.0 1.0 0.00 0.00 0.00 39 1019.1
20260503181733 67 198 4.0 6.0 0.00 0.00 0.00 38 1019.2
20260503181230 65 181 1.0 1.0 0.00 0.00 0.00 47 1019.1
20260503180726 66 167 2.0 2.0 0.00 0.00 0.00 41 1019.2
20260503180225 66 299 5.0 8.0 0.00 0.00 0.00 43 1019.2
20260503175721 66 290 2.0 2.0 0.00 0.00 0.00 41 1019.7
20260503175219 65 214 1.0 2.0 0.00 0.00 0.00 47 1019.5
20260503174715 66 281 1.0 1.0 0.00 0.00 0.00 43 1019.8
20260503174213 67 321 4.0 5.0 0.00 0.00 0.00 42 1019.7
20260503173708 65 305 3.0 5.0 0.00 0.00 0.00 43 1020.0
20260503173204 64 261 3.0 3.0 0.00 0.00 0.00 44 1020.0
20260503172701 65 335 4.0 6.0 0.00 0.00 0.00 43 1020.0
20260503172158 66 260 2.0 2.0 0.00 0.00 0.00 43 1020.1
20260503171654 66 203 2.0 2.0 0.00 0.00 0.00 46 1020.2
20260503171152 64 192 3.0 3.0 0.00 0.00 0.00 47 1020.4
20260503170649 65 210 2.0 3.0 0.00 0.00 0.00 45 1020.4
20260503170146 65 292 4.0 5.0 0.00 0.00 0.00 44 1020.2
20260503160107 62 316 3.0 5.0 0.00 0.00 0.00 46 1020.7
20260503150537 61 256 1.0 2.0 0.00 0.00 0.00 54 1021.0
20260503130927 53 212 3.0 5.0 0.00 0.00 0.00 66 1021.5
20260503130425 54 175 1.0 1.0 0.00 0.00 0.00 68 1021.4
20260503110823 40 174 0.0 0.0 0.00 0.00 0.00 95 1020.9
20260503110320 40 195 0.0 0.0 0.00 0.00 0.00 95 1020.9
20260503100246 39 178 0.0 0.0 0.00 0.00 0.00 91 1020.4
20260503090206 39 189 0.0 0.0 0.00 0.00 0.00 91 1020.6
20260503081636 39 172 0.0 0.0 0.00 0.00 0.00 87 1020.7
20260503081133 39 174 0.0 0.0 0.00 0.00 0.00 88 1020.5
20260503080629 39 176 0.0 0.0 0.00 0.00 0.00 90 1020.5
20260503080126 39 167 0.0 0.0 0.00 0.00 0.00 92 1020.8
20260503072603 39 179 0.0 0.0 0.00 0.00 0.00 90 1020.6
20260503072100 38 180 0.0 0.0 0.00 0.00 0.00 91 1020.5
20260503071556 38 180 0.0 0.0 0.00 0.00 0.00 92 1020.6
20260503071053 38 179 0.0 0.0 0.00 0.00 0.00 92 1020.7
20260503070549 38 180 0.0 0.0 0.00 0.00 0.00 92 1020.6